Simultaneous Nadir Overpasses (SNOs) Predictions

Prediction of SNOs between GOES-16 and NPP Satellite Orbit:

Table of predicted SNOs for the next 14.0 days since TLE Epoch: 7/27/2024
Index Date Time (GOES-16) GOES-16 Lat,Lon NPP Lat,Lon Distance(km) Time Diff (sec)
1 07/28/2024 18:29:42 -0.05, -75.21 -0.18, -75.85 73.16 80
2 07/29/2024 18:08:18 -0.05, -75.21 0.80, -71.32 443.25 80
3 07/31/2024 06:32:47 0.04, -75.22 0.34, -76.60 156.91 80
4 08/01/2024 06:11:24 0.04, -75.23 -0.70, -72.08 359.71 80
5 08/02/2024 18:36:01 -0.03, -75.24 -0.51, -77.38 244.16 80
6 08/03/2024 18:14:38 -0.03, -75.25 0.53, -72.86 273.17 80
7 08/05/2024 06:39:06 0.03, -75.28 0.66, -78.13 325.35 80
8 08/06/2024 06:17:41 0.03, -75.29 -0.33, -73.60 192.48 80
9 08/07/2024 18:39:40 -0.02, -75.32 -0.81, -78.92 409.75 80
10 08/08/2024 18:23:35 -0.02, -75.34 0.18, -74.39 108.70 80
